Change the Weather History Date:

Saturday, December 1, 2012

  Actual Average Record
Temperature  
Mean Temperature 72 °F -  
Max Temperature 81 °F 60 °F 81 °F (2012)
Min Temperature 64 °F 42 °F 27 °F (2006)
Cooling Degree Days 8    
Growing Degree Days 22 (Base 50)    
Moisture  
Dew Point 61 °F    
Average Humidity 72    
Maximum Humidity 88    
Minimum Humidity 47    
Precipitation  
Precipitation 0.00 in - - ()
Sea Level Pressure  
Sea Level Pressure 30.00 in    
Wind  
Wind Speed 14 mph (South)    
Max Wind Speed 20 mph    
Max Gust Speed 29 mph    
Visibility 10 miles    
Events      
Averages and records for this station are not official NWS values.
T = Trace of Precipitation, MM = Missing Value Source: NWS Daily Summary

Daily Weather History Graph

Daily Weather History Graph

Search for Another Location

Airport or City:

Trip Planner

Search our weather history database for the weather conditions in past years. The results will help you decide how hot, cold, wet, or windy it might be!

Date:

Astronomy

Dec. 01, 2012 Rise Set
Actual Time 7:12 AM CST 5:20 PM CST
Civil Twilight 6:45 AM CST 5:47 PM CST
Nautical Twilight 6:15 AM CST 6:18 PM CST
Astronomical Twilight 5:45 AM CST 6:48 PM CST
Moon 8:09 PM CST (12/1) 9:28 AM CST (12/1)
Length of Visible Light 11h 02m
Length of Day
10h 08m
Waning Gibbous, 91% of the Moon is Illuminated
Dec 1
Waning Gibbous
Dec 6
Last Quarter
Dec 13
New
Dec 19
First Quarter
Dec 28
Full

Hourly Weather History & Observations

Time (CST) Temp. Heat Index Dew Point Humidity Pressure Visibility Wind Dir Wind Speed Gust Speed Precip Events Conditions
12:15 AM 64.4 °F - 60.8 °F 88% 30.05 in 10.0 mi South 13.8 mph - N/A   Mostly Cloudy
12:53 AM 64.9 °F - 61.0 °F 87% 30.04 in 9.0 mi South 16.1 mph 21.9 mph N/A   Overcast
1:44 AM 66.2 °F - 62.6 °F 88% 30.05 in 9.0 mi South 13.8 mph - N/A   Mostly Cloudy
1:53 AM 66.0 °F - 62.1 °F 87% 30.03 in 9.0 mi South 12.7 mph - N/A   Mostly Cloudy
2:53 AM 66.0 °F - 62.1 °F 87% 30.03 in 10.0 mi South 13.8 mph - N/A   Overcast
3:53 AM 66.9 °F - 63.0 °F 87% 30.02 in 10.0 mi South 10.4 mph - N/A   Overcast
4:53 AM 66.9 °F - 63.0 °F 87% 30.02 in 10.0 mi South 12.7 mph 20.7 mph N/A   Overcast
5:53 AM 66.9 °F - 62.1 °F 84% 30.03 in 10.0 mi South 9.2 mph - N/A   Mostly Cloudy
6:06 AM 66.2 °F - 62.6 °F 88% 30.04 in 10.0 mi South 10.4 mph - N/A   Scattered Clouds
6:53 AM 66.0 °F - 62.1 °F 87% 30.03 in 10.0 mi South 13.8 mph - N/A   Scattered Clouds
7:13 AM 66.2 °F - 62.6 °F 88% 30.04 in 10.0 mi South 12.7 mph - N/A   Mostly Cloudy
7:22 AM 66.2 °F - 62.6 °F 88% 30.05 in 9.0 mi South 13.8 mph - N/A   Mostly Cloudy
7:53 AM 66.9 °F - 63.0 °F 87% 30.04 in 10.0 mi South 11.5 mph - N/A   Mostly Cloudy
8:43 AM 68.0 °F - 62.6 °F 83% 30.06 in 9.0 mi South 15.0 mph - N/A   Mostly Cloudy
8:53 AM 69.1 °F - 63.0 °F 81% 30.05 in 9.0 mi South 13.8 mph - N/A   Mostly Cloudy
9:53 AM 71.1 °F - 63.0 °F 75% 30.06 in 10.0 mi South 15.0 mph - N/A   Mostly Cloudy
10:53 AM 73.0 °F - 62.1 °F 68% 30.04 in 10.0 mi SSW 17.3 mph 24.2 mph N/A   Mostly Cloudy
11:26 AM 73.4 °F - 62.6 °F 69% 30.04 in 10.0 mi SSW 11.5 mph 27.6 mph N/A   Mostly Cloudy
11:53 AM 75.0 °F - 61.0 °F 62% 30.01 in 10.0 mi SSW 17.3 mph 26.5 mph N/A   Mostly Cloudy
12:53 PM 78.1 °F - 61.0 °F 56% 29.97 in 10.0 mi South 19.6 mph 24.2 mph N/A   Mostly Cloudy
1:53 PM 79.0 °F - 60.1 °F 52% 29.94 in 10.0 mi SSW 16.1 mph 25.3 mph N/A   Mostly Cloudy
2:53 PM 80.1 °F 80.7 °F 59.0 °F 48% 29.93 in 10.0 mi SSW 13.8 mph 27.6 mph N/A   Mostly Cloudy
3:53 PM 81.0 °F 81.3 °F 59.0 °F 47% 29.91 in 10.0 mi South 13.8 mph 28.8 mph N/A   Scattered Clouds
4:53 PM 80.1 °F 80.6 °F 57.9 °F 47% 29.92 in 10.0 mi SSW 13.8 mph 23.0 mph N/A   Mostly Cloudy
5:53 PM 77.0 °F - 59.0 °F 54% 29.93 in 10.0 mi South 10.4 mph - N/A   Scattered Clouds
6:53 PM 75.9 °F - 59.0 °F 56% 29.94 in 10.0 mi South 16.1 mph - N/A   Clear
7:53 PM 75.9 °F - 59.0 °F 56% 29.95 in 10.0 mi South 13.8 mph - N/A   Clear
8:53 PM 75.0 °F - 59.0 °F 57% 29.96 in 10.0 mi South 12.7 mph - N/A   Clear
9:53 PM 71.1 °F - 59.0 °F 66% 29.98 in 10.0 mi South 10.4 mph - N/A   Partly Cloudy
10:53 PM 69.1 °F - 57.9 °F 68% 29.99 in 10.0 mi South 10.4 mph - N/A   Partly Cloudy
11:53 PM 70.0 °F - 59.0 °F 68% 30.00 in 10.0 mi South 11.5 mph 19.6 mph N/A   Mostly Cloudy